Weather History for Three Rivers, MI

Change the Weather History Date:

Saturday, December 6, 2008

  Actual Average Record
Temperature  
Mean Temperature 24 °F -  
Max Temperature 32 °F 38 °F 60 °F (1951)
Min Temperature 17 °F 24 °F 9 °F (1964)
Degree Days  
Heating Degree Days 40    
Moisture  
Dew Point 22 °F    
Average Humidity 89    
Maximum Humidity 100    
Minimum Humidity 73    
Precipitation  
Precipitation 0.00 in - - ()
Sea Level Pressure  
Sea Level Pressure 29.76 in    
Wind  
Wind Speed 13 mph (SW)    
Max Wind Speed 17 mph    
Max Gust Speed 26 mph    
Visibility 4 miles    
Events Snow    
Averages and records for this station are not official NWS values.
T = Trace of Precipitation, MM = Missing Value Source: NWS Daily Summary

Daily Weather History Graph

Daily Weather History Graph

Search for Another Location

Airport:

Trip Planner

Search our weather history database for the weather conditions in past years. The results will help you decide how hot, cold, wet, or windy it might be!

Date:

Astronomy

Dec. 06, 2008 Rise Set
Actual Time 7:56 AM EST 5:11 PM EST
Civil Twilight 7:24 AM EST 5:42 PM EST
Nautical Twilight 6:49 AM EST 6:17 PM EST
Astronomical Twilight 6:16 AM EST 6:51 PM EST
Moon 1:11 PM EST (12/6) 12:47 AM EST (12/6)
Length of Visible Light 10h 17m
Length of Day
9h 14m
First Quarter, 59% of the Moon is Illuminated
Dec 6
First Quarter
Dec 12
Full
Dec 19
Last Quarter
Dec 27
New
Jan 4
First Quarter

Hourly Weather History & Observations

Time (EST) Temp. Windchill Dew Point Humidity Pressure Visibility Wind Dir Wind Speed Gust Speed Precip Events Conditions
12:17 AM 17.6 °F 5.0 °F 10.4 °F 73% 30.03 in 10.0 mi SSW 11.5 mph 17.3 mph N/A   Mostly Cloudy
12:37 AM 17.6 °F 4.3 °F 12.2 °F 79% 30.02 in 10.0 mi SSW 12.7 mph 20.7 mph N/A   Overcast
12:55 AM 17.6 °F 5.7 °F 12.2 °F 79% 30.00 in 10.0 mi SSW 10.4 mph - N/A   Overcast
1:17 AM 17.6 °F 5.0 °F 12.2 °F 79% 29.99 in 10.0 mi SSW 11.5 mph - N/A   Mostly Cloudy
1:37 AM 17.6 °F 5.7 °F 12.2 °F 79% 29.98 in 10.0 mi SSW 10.4 mph - N/A   Overcast
1:55 AM 17.6 °F 5.0 °F 12.2 °F 79% 29.97 in 10.0 mi SSW 11.5 mph - N/A   Overcast
2:17 AM 19.4 °F 7.2 °F 12.2 °F 74% 29.96 in 10.0 mi SSW 11.5 mph - N/A   Overcast
2:38 AM 19.4 °F 6.6 °F 14.0 °F 80% 29.94 in 4.0 mi South 12.7 mph - N/A Snow Light Snow
2:55 AM 19.4 °F 6.6 °F 14.0 °F 80% 29.93 in 7.0 mi SSW 12.7 mph - N/A Snow Light Snow
3:17 AM 19.4 °F 6.6 °F 14.0 °F 80% 29.91 in 10.0 mi South 12.7 mph - N/A   Overcast
3:37 AM 19.4 °F 6.6 °F 14.0 °F 80% 29.89 in 7.0 mi South 12.7 mph - N/A Snow Light Snow
3:55 AM 21.2 °F 7.8 °F 14.0 °F 74% 29.88 in 7.0 mi South 15.0 mph - N/A Snow Light Snow
4:17 AM 21.2 °F 8.3 °F 15.8 °F 80% 29.86 in 5.0 mi South 13.8 mph 20.7 mph N/A Snow Light Snow
4:37 AM 21.2 °F 7.3 °F 17.6 °F 86% 29.84 in 2.0 mi South 16.1 mph 20.7 mph N/A Snow Light Snow
4:55 AM 21.2 °F 6.8 °F 17.6 °F 86% 29.83 in 1.5 mi South 17.3 mph 20.7 mph N/A Snow Light Snow
5:17 AM 21.2 °F 7.8 °F 19.4 °F 93% 29.81 in 2.0 mi South 15.0 mph - N/A Snow Light Snow
5:37 AM 21.2 °F 7.8 °F 19.4 °F 93% 29.80 in 2.5 mi South 15.0 mph - N/A Snow Light Snow
5:55 AM 21.2 °F 8.9 °F 19.4 °F 93% 29.79 in 3.0 mi South 12.7 mph 18.4 mph N/A Snow Light Snow
6:17 AM 21.2 °F 8.3 °F 19.4 °F 93% 29.77 in 2.0 mi South 13.8 mph - N/A Snow Light Snow
6:37 AM 23.0 °F 9.6 °F 21.2 °F 93% 29.76 in 2.5 mi South 16.1 mph - N/A Snow Light Snow
6:55 AM 23.0 °F 9.2 °F 21.2 °F 93% 29.75 in 3.0 mi South 17.3 mph 23.0 mph N/A Snow Light Snow
7:17 AM 23.0 °F 10.1 °F 21.2 °F 93% 29.74 in 4.0 mi South 15.0 mph 23.0 mph N/A Snow Light Snow
7:37 AM 23.0 °F 10.1 °F 21.2 °F 93% 29.73 in 3.0 mi SSW 15.0 mph - N/A Snow Light Snow
7:55 AM 23.0 °F 9.6 °F 21.2 °F 93% 29.72 in 2.5 mi SSW 16.1 mph - N/A Snow Light Snow
8:17 AM 23.0 °F 10.6 °F 21.2 °F 93% 29.72 in 2.5 mi SSW 13.8 mph - N/A Snow Light Snow
8:37 AM 24.8 °F 11.9 °F 23.0 °F 93% 29.71 in 1.8 mi SSW 16.1 mph 21.9 mph N/A Snow Light Snow
8:55 AM 24.8 °F 11.9 °F 23.0 °F 93% 29.70 in 1.2 mi SSW 16.1 mph - N/A Snow Light Snow
9:17 AM 24.8 °F 12.4 °F 23.0 °F 93% 29.69 in 0.8 mi SSW 15.0 mph - N/A Snow Light Snow
9:37 AM 26.6 °F 13.8 °F 24.8 °F 93% 29.69 in 1.0 mi SSW 17.3 mph 21.9 mph N/A Snow Light Snow
9:58 AM 26.6 °F 14.7 °F 24.8 °F 93% 29.68 in 2.0 mi SSW 15.0 mph - N/A Snow Light Snow
10:17 AM 26.6 °F 13.8 °F 26.6 °F 100% 29.68 in 3.0 mi SSW 17.3 mph 21.9 mph N/A Snow Light Snow
10:37 AM 28.4 °F 16.6 °F 26.6 °F 93% 29.68 in 5.0 mi SSW 16.1 mph 26.5 mph N/A Snow Light Snow
10:55 AM 28.4 °F 17.0 °F 26.6 °F 93% 29.68 in 2.0 mi SSW 15.0 mph 21.9 mph N/A Snow Light Snow
11:17 AM 28.4 °F 18.0 °F 26.6 °F 93% 29.67 in 1.2 mi SW 12.7 mph 21.9 mph N/A Snow Light Snow
11:37 AM 28.4 °F 18.5 °F 26.6 °F 93% 29.66 in 2.5 mi SW 11.5 mph 20.7 mph N/A Snow Light Snow
11:55 AM 28.4 °F 16.6 °F 26.6 °F 93% 29.65 in 2.0 mi SSW 16.1 mph - N/A Snow Light Snow
12:17 PM 30.2 °F 20.2 °F 28.4 °F 93% 29.64 in 5.0 mi SW 12.7 mph 19.6 mph N/A Snow Light Snow
12:37 PM 30.2 °F 20.8 °F 28.4 °F 93% 29.63 in 3.0 mi SW 11.5 mph 19.6 mph N/A Snow Light Snow
12:55 PM 30.2 °F 20.2 °F 28.4 °F 93% 29.63 in 2.5 mi SW 12.7 mph - N/A Snow Light Snow
1:18 PM 30.2 °F 19.8 °F 30.2 °F 100% 29.62 in 1.5 mi SW 13.8 mph - N/A Snow Light Snow
1:37 PM 30.2 °F 20.2 °F 30.2 °F 100% 29.62 in 4.0 mi SW 12.7 mph 19.6 mph N/A Snow Light Snow
1:55 PM 30.2 °F 20.8 °F 30.2 °F 100% 29.62 in 3.0 mi SW 11.5 mph 18.4 mph N/A Snow Light Snow
2:17 PM 32.0 °F 25.6 °F 30.2 °F 93% 29.63 in 0.5 mi WSW 6.9 mph - N/A Snow Snow
2:37 PM 32.0 °F 23.0 °F 30.2 °F 93% 29.63 in 0.8 mi West 11.5 mph 18.4 mph N/A Snow Light Snow
2:55 PM 32.0 °F 21.6 °F 30.2 °F 93% 29.65 in 2.5 mi WNW 15.0 mph - N/A Snow Light Snow
3:17 PM 30.2 °F 19.8 °F 26.6 °F 86% 29.66 in 3.0 mi WNW 13.8 mph 21.9 mph N/A Snow Light Snow
3:37 PM 30.2 °F 20.2 °F 26.6 °F 86% 29.67 in 1.8 mi WNW 12.7 mph - N/A Snow Light Snow
3:55 PM 30.2 °F 20.2 °F 26.6 °F 86% 29.67 in 1.8 mi WNW 12.7 mph - N/A Snow Light Snow
4:17 PM 30.2 °F 20.8 °F 26.6 °F 86% 29.69 in 2.0 mi WNW 11.5 mph - N/A Snow Light Snow
4:37 PM 30.2 °F 19.8 °F 26.6 °F 86% 29.70 in 2.0 mi WNW 13.8 mph - N/A Snow Light Snow
4:55 PM 28.4 °F 16.6 °F 26.6 °F 93% 29.72 in 2.0 mi WNW 16.1 mph - N/A Snow Light Snow
5:17 PM 28.4 °F 16.6 °F 26.6 °F 93% 29.73 in 1.5 mi WNW 16.1 mph 19.6 mph N/A Snow Light Snow
5:37 PM 28.4 °F 18.5 °F 26.6 °F 93% 29.75 in 1.8 mi WNW 11.5 mph 17.3 mph N/A Snow Light Snow
5:55 PM 28.4 °F 17.5 °F 28.4 °F 100% 29.75 in 1.8 mi WNW 13.8 mph 19.6 mph N/A Snow Light Snow
6:17 PM 28.4 °F 18.5 °F 26.6 °F 93% 29.76 in 2.0 mi NW 11.5 mph 19.6 mph N/A Snow Light Snow
6:37 PM 28.4 °F 19.1 °F 26.6 °F 93% 29.78 in 4.0 mi WNW 10.4 mph 21.9 mph N/A Snow Light Snow
6:55 PM 28.4 °F 18.0 °F 26.6 °F 93% 29.79 in 5.0 mi WNW 12.7 mph 18.4 mph N/A Snow Light Snow
7:17 PM 28.4 °F 18.5 °F 26.6 °F 93% 29.81 in 5.0 mi WNW 11.5 mph - N/A Snow Light Snow
7:37 PM 28.4 °F 17.5 °F 26.6 °F 93% 29.82 in 3.0 mi WNW 13.8 mph 19.6 mph N/A Snow Light Snow
7:55 PM 28.4 °F 19.1 °F 26.6 °F 93% 29.83 in 3.0 mi WNW 10.4 mph - N/A Snow Light Snow
8:17 PM 26.6 °F 12.7 °F 26.6 °F 100% 29.84 in 2.0 mi WNW 20.7 mph - N/A Snow Light Snow
8:37 PM 26.6 °F 15.2 °F 26.6 °F 100% 29.85 in 1.8 mi WNW 13.8 mph - N/A Snow Light Snow
8:55 PM 26.6 °F 15.2 °F 26.6 °F 100% 29.86 in 1.2 mi WNW 13.8 mph - N/A Snow Snow
9:17 PM 26.6 °F 16.8 °F 24.8 °F 93% 29.87 in 1.8 mi NW 10.4 mph - N/A Snow Light Snow
9:37 PM 26.6 °F 16.2 °F 23.0 °F 86% 29.88 in 1.2 mi NW 11.5 mph 25.3 mph N/A Snow Light Snow
9:55 PM 26.6 °F 16.2 °F 23.0 °F 86% 29.89 in 1.0 mi WNW 11.5 mph 23.0 mph N/A Snow Snow
10:17 PM 26.6 °F 16.2 °F 23.0 °F 86% 29.91 in 5.0 mi NNW 11.5 mph 19.6 mph N/A Snow Light Snow
10:37 PM 24.8 °F 13.4 °F 21.2 °F 86% 29.92 in 1.5 mi North 12.7 mph 18.4 mph N/A Snow Light Snow
10:55 PM 23.0 °F 13.9 °F 21.2 °F 93% 29.93 in 0.5 mi NNW 8.1 mph - N/A Snow Snow
11:17 PM 23.0 °F 14.7 °F 21.2 °F 93% 29.94 in 0.8 mi NNW 6.9 mph - N/A Snow Snow
11:37 PM 23.0 °F 13.9 °F 21.2 °F 93% 29.95 in 1.5 mi NNW 8.1 mph - N/A Snow Light Snow